CW8812 Weather Reports


time (UTC)temp
C
wind
direction
speed
KPH
gust
KPH
rain 1hr
cm
rain 24hr
cm
rain mn
cm
humidity
%
barometer
mb
20260506182517 17 225 1.6 6.4 0.03 0.03 0.03 89 1005.0
20260506181517 16 0.0 0.0 0.03 0.03 0.03 88 1005.0
20260506180517 16 225 1.6 8.0 0.00 0.00 0.00 86 1005.5
20260506175516 17 0.0 3.2 0.00 0.00 0.00 85 1005.6
20260506174516 17 225 1.6 8.0 0.00 0.00 0.00 83 1005.6
20260506173516 17 225 3.2 8.0 0.00 0.00 0.00 83 1005.7
20260506172517 17 225 1.6 8.0 0.00 0.00 0.00 83 1005.8
20260506171516 17 225 1.6 8.0 0.00 0.00 0.00 83 1005.8
20260506170518 17 225 1.6 9.7 0.00 0.00 0.00 81 1005.9
20260506165516 17 225 4.8 11.3 0.00 0.00 0.00 80 1006.4
20260506164516 17 225 1.6 11.3 0.00 0.00 0.00 80 1006.4
20260506163536 17 203 6.4 12.9 0.00 0.00 0.00 79 1006.8
20260506162516 17 180 3.2 9.7 0.00 0.00 0.00 78 1006.8
20260506161516 17 225 6.4 17.7 0.00 0.00 0.00 78 1006.8
20260506160536 17 203 3.2 8.0 0.00 0.00 0.00 78 1006.9
20260506155516 17 225 4.8 16.1 0.00 0.00 0.00 77 1007.0
20260506154517 17 203 6.4 16.1 0.00 0.00 0.00 76 1007.0
20260506153516 18 225 3.2 11.3 0.00 0.00 0.00 75 1007.1
20260506152536 18 203 3.2 12.9 0.00 0.00 0.00 74 1007.0
20260506151616 18 203 3.2 9.7 0.00 0.00 0.00 73 1007.0
20260506150516 18 203 3.2 12.9 0.00 0.00 0.00 73 1007.0
20260506145516 18 203 3.2 11.3 0.00 0.00 0.00 75 1007.3
20260506144515 18 203 1.6 11.3 0.00 0.00 0.00 75 1007.3
20260506143515 18 203 3.2 9.7 0.00 0.00 0.00 74 1007.4
20260506142515 18 225 3.2 9.7 0.00 0.00 0.00 74 1007.4
20260506141516 18 203 3.2 12.9 0.00 0.00 0.00 73 1007.4
20260506140515 18 225 1.6 9.7 0.00 0.00 0.00 76 1007.4
20260506135516 17 225 3.2 11.3 0.00 0.00 0.00 78 1007.4
20260506134515 17 225 3.2 9.7 0.00 0.00 0.00 79 1007.4
20260506133516 17 225 3.2 12.9 0.00 0.00 0.00 77 1007.5
20260506132517 18 225 3.2 9.7 0.00 0.00 0.00 77 1007.7
20260506131517 18 225 3.2 11.3 0.00 0.00 0.00 77 1007.7
20260506130518 18 225 3.2 9.7 0.00 0.00 0.00 77 1007.7
20260506125517 17 203 3.2 11.3 0.00 0.00 0.00 79 1007.8
20260506124518 17 225 4.8 12.9 0.00 0.00 0.00 81 1007.8
20260506123538 16 225 3.2 9.7 0.00 0.00 0.00 82 1007.8
20260506122520 16 225 3.2 11.3 0.00 0.00 0.00 83 1007.9
20260506121604 16 225 1.6 8.0 0.00 0.00 0.00 84 1007.9
20260506120519 16 225 6.4 12.9 0.00 0.00 0.00 84 1007.6
20260506115517 16 225 3.2 9.7 0.00 0.00 0.00 85 1007.6
20260506114518 16 225 4.8 11.3 0.00 0.00 0.00 86 1007.6
20260506113517 15 225 4.8 11.3 0.00 0.00 0.00 87 1007.6
20260506112517 15 225 4.8 11.3 0.00 0.00 0.00 88 1007.8
20260506111517 15 225 1.6 4.8 0.00 0.00 0.00 89 1007.8
20260506110517 15 0.0 4.8 0.00 0.00 0.00 89 1007.7
20260506105517 15 225 3.2 6.4 0.00 0.00 0.00 89 1007.6
20260506104541 15 225 3.2 8.0 0.00 0.00 0.00 90 1007.6
20260506103517 15 225 3.2 9.7 0.00 0.00 0.00 90 1007.5
20260506102557 14 225 1.6 9.7 0.00 0.00 0.00 90 1007.5
20260506101517 14 225 1.6 11.3 0.00 0.00 0.00 90 1007.5
20260506100518 14 225 3.2 9.7 0.00 0.00 0.00 90 1007.5
20260506095518 14 225 1.6 9.7 0.00 0.00 0.00 90 1007.3
20260506094517 14 203 3.2 12.9 0.00 0.00 0.00 90 1007.3
20260506093517 14 225 1.6 8.0 0.00 0.00 0.00 90 1007.3
20260506092517 14 225 1.6 4.8 0.00 0.00 0.00 90 1007.5
20260506091538 14 203 3.2 8.0 0.00 0.00 0.00 89 1007.5
20260506090517 14 203 3.2 11.3 0.00 0.00 0.00 89 1007.6
20260506085523 14 203 4.8 11.3 0.00 0.00 0.00 89 1007.9
20260506084538 14 225 4.8 9.7 0.00 0.00 0.00 89 1007.9
20260506083517 14 203 3.2 9.7 0.00 0.00 0.00 89 1007.9
20260506082517 15 203 3.2 16.1 0.00 0.00 0.00 89 1007.9
20260506081517 15 203 1.6 6.4 0.00 0.00 0.00 89 1007.9
20260506080517 15 225 1.6 8.0 0.00 0.00 0.00 89 1007.8
20260506073517 15 225 1.6 9.7 0.00 0.00 0.00 88 1007.9
20260506072518 15 0.0 1.6 0.00 0.00 0.00 88 1007.9
20260506071518 15 225 1.6 4.8 0.00 0.00 0.00 87 1007.9
20260506070517 15 225 1.6 9.7 0.00 0.00 0.00 87 1008.0
20260506062517 15 248 3.2 16.1 0.00 0.00 0.00 86 1008.0
20260506061516 15 225 3.2 8.0 0.00 0.00 0.00 85 1008.0
20260506060538 15 225 3.2 12.9 0.00 0.00 0.00 85 1008.1
20260506050517 15 225 4.8 16.1 0.00 0.00 0.00 82 1008.5
20260506044517 15 225 4.8 14.5 0.00 0.00 0.00 82 1008.5
20260506043536 15 225 4.8 14.5 0.00 0.00 0.00 81 1008.4
20260506042516 15 225 4.8 16.1 0.00 0.00 0.00 81 1008.5
20260506041538 15 203 4.8 9.7 0.00 0.00 0.00 81 1008.5
20260506040518 15 225 4.8 17.7 0.00 0.00 0.00 80 1008.4
20260506035517 16 225 4.8 16.1 0.00 0.00 0.00 80 1008.4
20260506034516 16 225 3.2 9.7 0.00 0.00 0.00 80 1008.4
20260506033519 16 225 4.8 12.9 0.00 0.00 0.00 80 1008.6
20260506032517 16 225 4.8 12.9 0.00 0.00 0.00 80 1008.6
20260506031517 16 225 3.2 9.7 0.00 0.00 0.00 79 1008.6
20260506030518 16 248 1.6 6.4 0.00 0.00 0.00 79 1008.6
20260506025517 16 225 4.8 11.3 0.00 0.00 0.00 78 1008.6
20260506024517 16 203 4.8 16.1 0.00 0.00 0.00 77 1008.6
20260506023517 16 225 4.8 11.3 0.00 0.00 0.00 77 1008.5
20260506022518 16 225 4.8 16.1 0.00 0.00 0.00 76 1008.6
20260506021517 16 203 6.4 17.7 0.00 0.00 0.00 76 1008.6
20260506020517 16 225 6.4 19.3 0.00 0.00 0.00 76 1008.5
20260506015526 16 225 6.4 16.1 0.00 0.00 0.00 76 1008.5
20260506014517 16 248 4.8 11.3 0.00 0.00 0.00 77 1008.5
20260506013517 16 225 8.0 14.5 0.00 0.00 0.00 77 1008.3
20260506012517 16 203 8.0 19.3 0.00 0.00 0.00 78 1008.3
20260506011538 15 225 4.8 16.1 0.00 0.00 0.00 79 1008.3
20260506010517 16 225 4.8 16.1 0.00 0.00 0.00 78 1008.1
20260506005517 16 225 4.8 16.1 0.00 0.00 0.00 78 1008.0
20260506004517 16 225 9.7 19.3 0.00 0.00 0.00 77 1008.0
20260506003517 16 225 6.4 17.7 0.00 0.00 0.00 77 1008.0
20260506002517 16 203 4.8 12.9 0.00 0.00 0.00 77 1008.0
20260506001517 16 225 4.8 12.9 0.00 0.00 0.00 76 1008.0
20260506000537 16 225 6.4 16.1 0.00 0.00 0.00 75 1007.9
20260505235517 17 225 4.8 14.5 0.00 0.00 0.00 73 1007.7
20260505234518 17 203 3.2 14.5 0.00 0.00 0.00 71 1007.7
20260505233517 17 225 6.4 17.7 0.00 0.00 0.00 70 1007.5
20260505232518 18 203 9.7 19.3 0.00 0.00 0.00 68 1007.3
20260505231540 18 203 9.7 25.7 0.00 0.00 0.00 67 1007.3
20260505230517 18 225 11.3 25.7 0.00 0.00 0.00 65 1007.3
20260505225517 18 225 8.0 17.7 0.00 0.00 0.00 64 1007.2
20260505224518 18 225 8.0 20.9 0.00 0.00 0.00 63 1007.2
20260505223518 18 225 6.4 19.3 0.00 0.00 0.00 62 1007.1
20260505222517 19 225 8.0 19.3 0.00 0.00 0.00 62 1007.3
20260505221517 18 225 8.0 19.3 0.00 0.00 0.00 62 1007.3
20260505220518 19 203 8.0 22.5 0.00 0.00 0.00 63 1007.0
20260505215517 19 225 8.0 20.9 0.00 0.00 0.00 62 1007.0
20260505214516 19 203 8.0 19.3 0.00 0.00 0.00 62 1007.0
20260505213518 19 203 9.7 17.7 0.00 0.00 0.00 62 1006.8
20260505212517 19 225 6.4 17.7 0.00 0.00 0.00 61 1006.8
20260505211518 19 203 9.7 20.9 0.00 0.00 0.00 61 1006.8
20260505210521 20 203 9.7 29.0 0.00 0.00 0.00 61 1006.8
20260505205517 20 248 8.0 19.3 0.00 0.00 0.00 60 1006.7
20260505204518 20 225 6.4 20.9 0.00 0.00 0.00 58 1006.7
20260505203516 20 203 8.0 22.5 0.00 0.00 0.00 59 1006.7
20260505202516 20 225 6.4 22.5 0.00 0.00 0.00 58 1006.8
20260505201516 20 203 9.7 19.3 0.00 0.00 0.00 58 1006.8
20260505200517 20 225 11.3 22.5 0.00 0.00 0.00 59 1006.8
20260505195516 21 203 9.7 22.5 0.00 0.00 0.00 58 1007.0
20260505194516 21 225 8.0 19.3 0.00 0.00 0.00 57 1007.0
20260505193516 21 203 8.0 20.9 0.00 0.00 0.00 57 1007.3
20260505192516 21 203 8.0 20.9 0.00 0.00 0.00 57 1007.5
20260505191516 21 203 8.0 17.7 0.00 0.00 0.00 58 1007.5
20260505190516 21 203 6.4 16.1 0.00 0.00 0.00 59 1007.5
20260505185516 21 225 8.0 20.9 0.00 0.00 0.00 58 1007.5
20260505184516 22 225 6.4 11.3 0.00 0.00 0.00 57 1007.5
20260505183516 22 225 6.4 14.5 0.00 0.00 0.00 55 1007.5